Vertical_Velocity
3 2 -2 -2 1 -5 -1 -4 -20 -9 -6 2 5 0 -2 -1 -3 2 2 -2 -2 -1 1 4 5 2 2 3 -1 3 0 -1 -1 -1 -1 -0 -1 -2 -2 -1 -0 -2 -4 -5 -5 -5 -7 -2 -3 -4 -4 -2 -2 -6
-1 8 3 -14 6 -9 2 -10 -10 -5 -3 -5 -1 -1 0 -0 -3 0 0 -2 -2 -2 -1 1 2 3 3 -2 -0 3 -1 -0 -1 -1 -2 -1 -1 -2 -1 -2 -0 -3 -1 -5 -3 -5 -3 -3 -4 -4 -3 -1 -2 -2
-4 3 2 -15 -0 -8 -1 -5 -4 -10 -7 -3 -3 2 -1 -4 -1 1 0 0 -0 -2 1 0 2 4 3 1 1 0 -0 -1 -1 -1 -3 -2 -2 -3 -3 -3 -1 -2 -1 -2 -2 -2 -2 -3 -2 -2 -4 -3 -3 -3
-4 -3 1 -5 -3 -4 3 -0 -1 -5 1 -7 -5 1 -0 0 1 1 1 1 1 2 0 1 1 1 1 -1 -1 1 2 -1 -2 -1 -0 -0 -1 -1 -2 -2 -2 -2 -1 1 -1 -1 -3 -3 -1 -3 -1 -2 -2 -2
-3 -3 -2 -1 -1 -3 1 -1 -4 -9 -6 -6 -6 -0 1 1 1 -1 -0 -0 1 0 0 1 -1 -1 1 0 -1 -1 -0 0 -0 -2 -1 -0 0 -1 -1 -1 -2 -1 -1 -1 -1 -0 -1 -2 1 -0 -1 -1 -2 -1
-3 -2 -2 1 -1 1 -2 1 -7 -4 -3 -3 -5 -3 -1 1 4 0 -4 4 0 -0 1 2 1 0 1 1 -1 0 -1 -1 0 -1 -1 -1 0 -1 1 0 0 -1 -2 -2 -1 -2 -1 -1 -2 -2 -2 -2 -3 -2
2 -0 -1 -4 0 3 -5 3 1 -2 -1 -7 -5 -4 1 2 4 -1 -2 1 4 1 -2 -1 -0 1 1 -1 -1 -2 -1 -1 1 0 -0 -1 -1 0 -1 0 -0 -1 -1 0 -0 0 0 -1 -0 -1 -1 -2 -1 -0
-3 -5 1 -4 2 3 -3 -0 0 -1 -4 -3 0 -7 -5 -2 -3 -1 -2 1 -1 -2 -1 0 1 0 2 0 -1 -1 0 0 -1 -3 -2 -1 -1 -1 -2 0 0 -0 0 -0 1 0 1 -1 -0 -1 -2 -2 -1 -1
-5 -6 -1 -3 2 2 -0 1 2 -1 1 -2 -3 -3 -3 -2 -6 -4 -2 2 -3 -1 0 2 -1 -3 0 -1 -1 -1 -1 -0 -0 -2 -1 -0 -1 -1 -1 -0 -1 -1 -0 -1 -1 -0 -1 -1 -0 -1 -2 -1 -1 -1
-1 -9 1 -1 0 3 5 1 6 -0 -1 0 -3 -1 -3 0 1 -1 -5 -3 -3 -2 -3 -1 1 1 -0 0 -1 0 -1 -1 -2 -1 -0 -1 -1 1 -2 -1 -1 0 -1 -1 -1 -1 -1 -1 -2 -2 -1 -0 -0 -2
-3 -3 -0 -3 -1 0 6 1 2 2 -2 0 5 1 -1 -4 -2 0 -5 -4 -3 -0 4 0 -2 2 -3 -2 -2 -0 -1 -2 -1 -1 -1 0 -3 -1 -0 -1 -1 -1 -2 -1 -1 -1 -2 -2 -2 -2 -2 -2 -1 -1
-1 -4 -0 -5 -1 0 -1 3 3 13 3 -1 9 -2 -4 -5 -3 -4 -5 -4 1 -4 2 -1 -1 -2 -1 -1 0 -1 -2 -2 -1 0 -2 1 -4 -1 -0 -1 -2 -2 -1 -2 -1 -2 -1 -1 -1 0 1 1 1 -1
-3 -2 1 -6 0 -1 0 6 14 4 -1 -1 -0 -5 -2 -3 -11 -6 -2 2 4 7 6 4 1 -1 -3 -1 -0 -2 -3 -1 -1 -0 1 -3 -2 1 -1 -3 -1 -1 -2 -1 -1 -1 -1 -1 1 1 -1 1 -1 -3
1 -0 0 -4 1 -2 3 6 3 7 3 2 -1 1 -13 -10 -7 3 8 4 2 2 2 0 -1 -1 1 -2 -3 -0 -3 -2 -2 2 -2 -2 1 -1 -2 -2 -2 -2 -1 -1 -1 -1 -1 -1 -2 -2 -0 -0 0 -2
1 2 -1 -4 0 1 5 1 8 8 9 -3 -4 -8 -1 5 7 2 -0 -1 0 2 4 4 -0 1 -2 -2 -0 -0 -1 -3 3 1 -2 -1 -1 -1 -1 -2 -2 -1 -1 -1 -1 -2 -1 -1 -2 -4 1 1 2 -1
4 -1 5 0 1 3 4 -3 -4 0 2 -3 -7 -6 6 1 3 2 3 1 1 -0 1 3 1 -0 1 -4 0 -3 -1 2 2 -4 -1 1 2 1 0 0 -0 0 -1 -2 -1 -1 -1 1 0 -0 -2 -0 -1 1
1 9 3 1 -3 3 4 2 4 6 5 -17 -3 0 8 1 1 -1 0 2 0 -3 0 -0 -1 -0 4 -4 -1 1 4 -4 -3 1 0 1 0 -1 1 -1 -0 -0 -1 0 -1 -1 -1 0 -1 0 3 -6 -4 -0
2 9 -2 -2 5 5 3 2 4 -3 -20 -4 -1 5 6 4 4 4 3 -1 -0 2 -2 -3 3 -2 -2 2 2 -0 -0 0 -1 -1 -0 -0 0 0 -1 -0 1 -0 -0 1 -1 -1 -1 -1 -0 -0 1 2 -0 -2
14 -3 -1 15 6 4 6 9 0 -14 -4 10 9 8 7 3 2 2 3 -1 0 -1 -4 -2 -5 -3 -1 4 0 1 0 0 1 -1 -1 0 -1 -1 -1 -1 -0 0 -0 1 -1 -1 -2 -1 2 2 -0 1 5 -1
14 -8 9 11 -0 -2 10 8 2 -7 8 7 12 5 3 4 2 3 0 3 1 -0 -5 -5 -1 4 2 2 0 0 0 1 0 -1 -1 -2 -0 0 -1 -0 -0 -0 0 1 -1 -0 -1 -1 -0 2 1 1 6 2
8 -3 14 4 1 -4 4 0 -1 -5 1 4 10 7 -0 2 1 1 3 2 -5 1 5 3 -1 2 3 1 1 0 0 2 -0 -2 -1 -1 -0 0 -1 -0 -0 -1 1 -1 -2 -2 1 1 2 1 2 0 1 0
13 2 4 6 2 2 -3 1 -1 3 5 7 9 5 1 1 2 3 3 -8 2 1 1 -1 1 2 3 -1 -1 0 2 -0 -0 -0 -1 -2 -1 1 -0 0 -1 0 1 -1 0 0 -0 0 1 -0 2 3 1 1
3 7 7 10 6 -3 -9 -1 -1 10 -1 1 11 9 3 0 0 7 -10 -6 4 3 1 0 0 4 1 0 0 1 1 0 -2 -1 -3 -3 -0 1 1 -0 -2 -2 -2 -1 -1 -1 -1 -0 0 2 2 -0 3 4
11 13 5 7 3 3 -3 -6 -8 -2 -2 2 6 4 5 1 6 -5 -10 6 9 0 -1 1 2 1 -0 -0 1 1 1 -1 -1 -2 -2 -1 -1 -1 -1 -1 -1 -1 -3 -4 -3 -4 -1 -1 1 2 1 5 4 2
9 2 11 5 1 9 -0 -3 -8 -4 -6 -4 -1 -4 -2 1 -5 -5 3 9 3 2 2 -0 1 1 -0 -0 0 -0 -0 0 -1 -2 -2 -1 -1 -1 -1 -1 1 -0 -3 -1 -1 -0 -2 0 -0 2 -0 -1 -1 3
14 -12 -2 -13 -6 2 -6 -6 -3 -1 9 7 -1 1 4 0 1 -7 8 11 -0 -0 5 1 -1 -1 1 1 0 0 0 -1 -3 -2 -1 -1 -1 -1 -2 -1 1 2 -0 -1 -1 -0 -0 0 -0 1 4 -0 -5 -3
6 -8 -1 -7 -11 -1 11 3 6 7 10 -5 -5 5 8 -2 -10 -1 7 6 2 1 -4 1 3 0 0 0 1 0 -1 -2 -2 -1 -1 -1 -1 -1 -1 -1 -1 -2 -4 -3 -3 -0 3 2 4 3 3 2 -1 -3
-4 -8 4 1 -3 8 9 7 -1 1 -4 -14 5 -2 -1 -8 -2 10 5 14 4 1 4 1 -1 1 2 2 1 -1 -2 -1 -0 -1 -1 -1 -2 1 -1 -2 -2 -2 -2 -2 -0 -1 -2 -2 -1 -3 -2 0 1 -0
0 3 5 -2 4 5 -1 -5 -7 -8 -3 -1 4 4 6 9 11 5 7 11 4 0 2 0 1 2 2 1 -1 -2 -1 -1 -2 -2 -2 -0 1 -2 -2 -3 -3 1 1 -1 -4 -1 2 -1 -3 -2 -1 -3 -1 -1
5 1 -2 1 1 1 1 0 0 12 8 7 1 8 7 6 4 6 4 5 2 1 -1 -1 1 3 1 0 -1 -2 -1 -2 -2 -1 -1 -2 -2 -2 -3 -3 -3 -4 -2 -1 1 -1 -8 -5 -3 -6 -7 -6 -4 -5
6 -2 5 -1 -0 2 3 1 1 -3 -8 -3 8 12 8 2 6 5 4 4 2 -1 -1 0 3 3 2 -1 -2 -1 -2 -0 -0 -1 -2 -1 -2 -3 -3 -1 -2 -1 -1 -1 -2 -3 -2 -4 -4 -4 -5 -4 -6 -4
-3 -8 5 4 7 4 -0 -2 -1 1 4 9 8 -4 -3 1 4 6 2 2 -1 -2 0 1 3 1 -1 -2 -1 -0 0 -1 -2 -3 -3 -3 -2 -3 -2 -2 -1 -1 -0 -5 -5 -3 -3 -3 -2 -1 -2 -3 -3 -2
-3 -4 4 7 5 -1 1 4 1 4 -1 -5 -7 -1 3 5 5 3 3 -2 -1 1 2 1 -0 -0 0 -0 -1 -1 -1 -2 -2 -2 -1 -2 -3 -3 -4 -2 -1 -0 -3 -5 -2 -2 -2 -4 -4 -4 -6 -6 -4 -4
Height
5562 5550 5541 5538 5537 5534 5535 5534 5531 5526 5528 5532 5537 5541 5547 5553 5558 5562 5565 5569 5576 5582 5588 5593 5598 5603 5608 5612 5614 5617 5619 5620 5620 5621 5622 5622 5622 5622 5621 5621 5620 5620 5621 5620 5619 5618 5619 5616 5617 5617 5617 5615 5615 5615
5563 5552 5542 5542 5543 5543 5541 5542 5541 5538 5540 5544 5546 5551 5555 5559 5563 5565 5568 5574 5580 5587 5591 5595 5600 5606 5611 5613 5617 5619 5620 5621 5622 5624 5625 5625 5625 5625 5625 5624 5624 5623 5624 5623 5622 5623 5621 5619 5618 5617 5616 5614 5613 5611
5562 5555 5544 5542 5546 5547 5548 5550 5550 5549 5549 5551 5554 5558 5561 5563 5567 5569 5572 5577 5583 5589 5593 5597 5602 5607 5612 5616 5618 5621 5622 5623 5624 5626 5627 5628 5628 5628 5627 5627 5626 5625 5624 5624 5623 5622 5620 5619 5618 5617 5615 5612 5610 5608
5560 5553 5546 5545 5547 5550 5553 5554 5555 5556 5558 5558 5559 5561 5564 5567 5570 5574 5577 5581 5587 5592 5595 5600 5604 5608 5612 5616 5619 5621 5623 5624 5625 5626 5627 5627 5628 5628 5627 5628 5627 5626 5624 5622 5621 5620 5618 5617 5615 5613 5611 5609 5606 5603
5557 5551 5546 5548 5548 5551 5555 5556 5558 5559 5563 5563 5562 5564 5567 5570 5573 5575 5579 5584 5589 5594 5597 5601 5604 5608 5612 5616 5619 5621 5623 5624 5625 5626 5626 5626 5627 5627 5626 5626 5625 5624 5622 5621 5619 5616 5615 5613 5610 5608 5606 5604 5601 5598
5552 5548 5543 5543 5546 5550 5553 5555 5559 5561 5563 5564 5564 5566 5567 5570 5573 5575 5579 5585 5590 5594 5598 5601 5605 5608 5612 5615 5618 5620 5623 5624 5624 5625 5625 5626 5626 5626 5625 5623 5623 5622 5620 5618 5616 5613 5611 5609 5606 5603 5600 5598 5595 5591
5544 5542 5540 5540 5544 5547 5549 5553 5557 5559 5560 5564 5566 5567 5567 5569 5571 5574 5579 5585 5589 5593 5597 5601 5603 5608 5611 5614 5617 5619 5621 5622 5624 5624 5624 5624 5624 5624 5622 5621 5620 5618 5616 5614 5612 5609 5607 5604 5602 5599 5595 5592 5588 5584
5535 5535 5534 5533 5538 5541 5543 5549 5551 5555 5559 5562 5565 5565 5566 5567 5568 5571 5577 5582 5587 5591 5596 5599 5603 5607 5610 5613 5616 5618 5619 5620 5621 5622 5622 5622 5621 5621 5620 5618 5616 5614 5612 5610 5608 5605 5602 5599 5596 5593 5589 5585 5581 5577
5528 5527 5526 5524 5529 5534 5537 5543 5547 5549 5554 5558 5562 5563 5564 5567 5568 5570 5574 5580 5583 5589 5593 5598 5601 5605 5608 5610 5614 5616 5617 5618 5619 5620 5620 5620 5618 5618 5617 5615 5613 5610 5608 5605 5602 5600 5597 5594 5590 5586 5582 5578 5573 5568
5517 5518 5518 5516 5517 5523 5529 5534 5540 5543 5548 5553 5557 5559 5562 5564 5564 5568 5572 5576 5581 5586 5590 5594 5598 5602 5606 5609 5611 5614 5614 5615 5616 5617 5617 5617 5615 5614 5612 5610 5608 5606 5604 5601 5598 5594 5591 5587 5584 5580 5575 5571 5565 5560
5505 5506 5507 5508 5506 5510 5517 5523 5532 5538 5543 5548 5552 5553 5556 5559 5560 5564 5567 5571 5576 5583 5587 5590 5594 5597 5602 5605 5607 5609 5610 5612 5613 5614 5613 5613 5610 5609 5608 5606 5604 5602 5599 5596 5592 5588 5584 5580 5576 5572 5567 5563 5557 5551
5495 5496 5496 5498 5496 5498 5505 5512 5522 5533 5536 5541 5545 5547 5551 5552 5554 5558 5561 5566 5572 5577 5582 5586 5590 5594 5598 5601 5604 5606 5607 5608 5609 5608 5609 5609 5607 5605 5604 5601 5599 5596 5593 5589 5585 5582 5577 5573 5569 5564 5559 5553 5547 5542
5482 5485 5485 5487 5487 5486 5492 5501 5512 5519 5525 5532 5535 5539 5543 5546 5548 5552 5556 5561 5568 5574 5580 5583 5587 5591 5593 5597 5599 5601 5602 5604 5604 5604 5604 5604 5602 5601 5599 5596 5593 5590 5586 5582 5578 5575 5570 5566 5561 5555 5549 5544 5539 5532
5470 5472 5475 5476 5477 5477 5480 5490 5498 5508 5515 5521 5527 5533 5535 5540 5544 5550 5554 5557 5562 5569 5574 5578 5581 5585 5588 5591 5593 5595 5597 5598 5598 5600 5599 5598 5597 5595 5593 5591 5587 5584 5580 5575 5572 5568 5563 5558 5553 5547 5541 5535 5529 5522
5459 5461 5463 5464 5466 5466 5468 5477 5488 5496 5503 5510 5517 5523 5530 5535 5540 5545 5546 5551 5556 5562 5567 5573 5576 5580 5583 5584 5588 5590 5592 5592 5594 5594 5592 5592 5592 5589 5586 5584 5580 5576 5572 5568 5564 5560 5555 5550 5544 5538 5532 5526 5520 5512
5447 5449 5453 5452 5453 5455 5455 5462 5472 5481 5488 5498 5507 5517 5524 5529 5535 5536 5540 5544 5550 5555 5560 5565 5569 5573 5576 5579 5583 5584 5586 5588 5588 5586 5586 5587 5585 5582 5580 5576 5573 5569 5565 5561 5556 5551 5546 5541 5536 5529 5522 5515 5509 5500
5433 5440 5438 5439 5439 5441 5441 5452 5463 5470 5475 5485 5499 5509 5517 5523 5527 5530 5533 5537 5542 5549 5554 5558 5562 5566 5569 5572 5576 5578 5580 5580 5580 5580 5580 5579 5578 5576 5573 5569 5565 5561 5557 5552 5547 5542 5537 5532 5526 5520 5512 5503 5497 5488
5423 5425 5426 5429 5428 5427 5428 5437 5451 5455 5464 5478 5489 5500 5508 5514 5519 5524 5527 5530 5535 5540 5545 5549 5554 5558 5562 5566 5570 5571 5573 5573 5573 5573 5573 5571 5570 5569 5565 5562 5558 5553 5548 5544 5539 5534 5528 5523 5517 5510 5502 5494 5485 5476
5410 5409 5417 5419 5417 5417 5424 5433 5441 5446 5458 5469 5480 5491 5500 5505 5510 5515 5519 5523 5528 5533 5536 5541 5546 5551 5555 5559 5562 5564 5565 5566 5566 5567 5566 5565 5563 5561 5558 5554 5549 5545 5540 5535 5531 5525 5520 5513 5507 5499 5491 5483 5474 5465
5395 5397 5407 5407 5404 5408 5416 5424 5434 5443 5448 5459 5472 5481 5490 5496 5501 5506 5511 5516 5520 5524 5528 5533 5538 5544 5548 5552 5554 5556 5557 5558 5559 5559 5559 5557 5555 5552 5549 5545 5540 5536 5532 5527 5522 5516 5509 5503 5496 5488 5480 5470 5461 5452
5379 5386 5391 5393 5395 5402 5407 5417 5426 5432 5439 5449 5461 5470 5479 5486 5492 5497 5502 5507 5511 5516 5522 5527 5531 5535 5540 5543 5546 5548 5549 5550 5551 5551 5551 5549 5547 5543 5539 5536 5531 5527 5522 5516 5511 5505 5499 5492 5483 5475 5466 5456 5446 5438
5369 5373 5379 5382 5386 5392 5397 5406 5416 5425 5432 5441 5451 5460 5469 5477 5483 5489 5493 5498 5505 5510 5514 5518 5523 5527 5532 5535 5537 5539 5540 5541 5541 5542 5541 5540 5537 5534 5530 5526 5522 5517 5511 5506 5500 5494 5487 5479 5471 5462 5452 5442 5431 5422
5354 5363 5368 5371 5375 5377 5386 5395 5404 5414 5423 5433 5442 5451 5458 5467 5474 5479 5484 5491 5498 5502 5506 5510 5514 5519 5523 5526 5528 5530 5531 5532 5532 5533 5532 5531 5528 5525 5521 5516 5511 5506 5501 5495 5489 5482 5474 5466 5457 5448 5437 5426 5417 5407
5344 5349 5351 5356 5360 5367 5372 5381 5393 5404 5412 5422 5432 5441 5450 5458 5464 5470 5478 5486 5491 5494 5498 5503 5507 5510 5513 5516 5518 5520 5522 5522 5523 5523 5522 5521 5518 5515 5510 5506 5500 5495 5490 5484 5477 5470 5462 5453 5443 5432 5421 5411 5400 5391
5330 5329 5335 5338 5346 5356 5363 5373 5382 5395 5407 5417 5426 5433 5442 5450 5457 5465 5473 5480 5483 5487 5491 5494 5497 5501 5504 5507 5509 5511 5512 5513 5514 5513 5512 5509 5507 5503 5499 5494 5489 5484 5478 5471 5465 5456 5447 5437 5426 5415 5403 5393 5384 5374
5313 5315 5324 5329 5340 5351 5359 5368 5380 5394 5404 5411 5418 5427 5436 5443 5450 5458 5466 5471 5475 5479 5483 5486 5489 5493 5496 5498 5501 5503 5504 5504 5504 5503 5501 5498 5496 5492 5487 5482 5477 5472 5465 5459 5451 5442 5432 5421 5409 5398 5385 5373 5361 5353
5303 5309 5320 5328 5337 5347 5357 5365 5376 5385 5395 5401 5411 5422 5429 5435 5443 5452 5459 5463 5467 5471 5475 5479 5483 5485 5487 5490 5492 5494 5494 5494 5493 5492 5489 5487 5483 5479 5475 5470 5465 5459 5452 5445 5437 5428 5417 5406 5394 5382 5370 5357 5345 5337
5302 5309 5319 5329 5336 5341 5350 5358 5366 5377 5387 5398 5408 5413 5421 5430 5439 5445 5450 5455 5459 5463 5467 5471 5474 5476 5479 5481 5483 5485 5485 5484 5482 5480 5478 5475 5472 5468 5464 5459 5453 5446 5438 5430 5421 5410 5400 5389 5377 5366 5354 5344 5334 5322
5302 5308 5316 5323 5329 5334 5341 5349 5361 5375 5388 5396 5404 5411 5419 5425 5430 5434 5438 5445 5450 5453 5458 5462 5466 5468 5471 5473 5474 5475 5474 5473 5471 5469 5466 5463 5460 5457 5452 5446 5440 5433 5424 5413 5404 5395 5383 5371 5360 5350 5341 5332 5321 5309
5302 5309 5315 5319 5322 5329 5339 5351 5363 5375 5381 5388 5394 5403 5409 5414 5418 5423 5427 5434 5440 5445 5450 5454 5457 5460 5462 5464 5465 5465 5464 5462 5460 5458 5455 5452 5449 5445 5440 5433 5426 5418 5409 5399 5388 5376 5364 5354 5344 5335 5327 5318 5309 5300
5302 5308 5313 5317 5322 5332 5342 5350 5358 5365 5373 5381 5389 5396 5401 5404 5409 5415 5420 5425 5431 5437 5442 5446 5448 5451 5453 5454 5455 5455 5453 5451 5449 5447 5445 5442 5438 5433 5427 5420 5412 5403 5393 5383 5372 5362 5351 5343 5334 5325 5316 5307 5298 5289
5300 5304 5311 5317 5325 5333 5339 5345 5353 5361 5367 5375 5383 5387 5391 5395 5401 5408 5414 5419 5425 5430 5434 5436 5439 5442 5444 5445 5444 5443 5441 5440 5438 5436 5434 5430 5426 5420 5414 5406 5397 5387 5378 5368 5357 5348 5341 5333 5324 5315 5306 5297 5288 5279
5300 5304 5311 5318 5323 5330 5336 5342 5349 5357 5362 5369 5374 5379 5384 5390 5396 5402 5407 5413 5418 5422 5425 5428 5430 5432 5433 5434 5433 5432 5431 5430 5428 5426 5423 5418 5413 5407 5399 5390 5382 5373 5364 5355 5347 5339 5332 5324 5315 5305 5296 5287 5278 5268